Tracking 19796 objects as of 19-Jul-2019
HD Live streaming from Space Station
objects crossing your sky now

SPARK 2

Track SPARK 2 now!
10-day predictions


NORAD ID: 41901
Int'l Code: 2016-081D
Perigee: 697.1 km
Apogee: 734.9 km
Inclination: 98.2 °
Period: 99.0 minutes
Semi major axis: 7087 km
RCS: Unknown
Launch date: December 21, 2016
Source: People's Republic of China (PRC)
Launch site: Jiuquan Satellite Launch Center, China (JSC)

SPARK 2 is a secondary payload designed for high-resolution and hyperspectral remote sensing of Earth.
aabbcc
Your satellite tracking list
Your tracking list is empty




NASA's NSSDC Master Catalog

Two Line Element Set (TLE):
1 41901U 16081D   19200.12650206 -.00000010  00000-0  84000-5 0  9994
2 41901  98.2437 137.4106 0026699 189.0655 171.0067 14.55146470136591
Source of the keplerian elements: AFSPC